[[{"header":{"parameterUnit":"m.s-1","parameterCategory":1,"la1":30.2991,"la2":30.254,"lo1":-89.0895,"lo2":-89.0444,"dy":0.0017,"dx":0.0017,"nx":28,"ny":28,"refTime":"2024-06-09T09:00:00:Z","depth":0,"parameterNumber":2,"parameterNumberName":"U-component_of_WINDS"},"data":[0,0,0,0,0,0,0,0,0,0,0,0,0,0,0,0,0,0,0,0,0,0,0,0,0,0,0,0,0,0,0,0,0,0,0,0,0,0,0,0,0,0,0,0,0,0,0,0,0,0,0,0,0,0,0,0,0,0,4.4801,4.4803,0,4.4981,4.4983,4.4985,4.4962,4.4959,4.4956,4.4953,4.5138,4.5146,4.5153,0,0,0,0,0,0,0,0,0,0,0,0,0,4.4437,4.4444,4.4801,4.4803,4.4806,4.498,4.4983,4.4985,4.4962,4.4959,4.4955,4.4952,4.5136,4.5145,4.5154,0,0,0,0,0,0,0,0,0,0,0,0,0,4.4604,4.4446,4.4801,4.4815,4.4818,4.498,4.4983,4.4986,4.4963,4.4959,4.4954,4.495,4.5133,4.5144,4.5155,4.5315,0,0,4.5191,4.5195,0,0,0,0,0,0,0,0,4.4594,4.4617,4.4811,4.4814,4.4818,4.4944,4.4922,4.5096,4.4964,4.4908,4.4953,4.4948,4.5077,4.5093,4.5137,4.5323,4.5331,4.5192,4.5199,4.5203,4.5207,0,0,0,0,0,0,0,4.4583,4.4609,4.4872,4.4814,4.4818,4.4812,4.4831,4.4955,4.5015,4.4913,4.4911,4.4933,4.5079,4.5126,4.5141,4.5334,4.5191,4.5201,4.5209,4.5213,4.5655,4.566,0,0,0,0,0,0,4.4567,4.46,4.4866,4.4878,4.4693,4.4822,4.4843,4.4908,4.5014,4.5026,4.4936,4.4931,4.5108,4.5127,4.5147,4.5337,4.5203,4.5214,4.5221,4.5651,4.5657,4.5662,0,0,0,0,0,0,4.456,4.4591,4.4859,4.4738,4.4772,4.4833,4.4906,4.4914,4.4961,4.5032,4.5042,4.4973,4.5105,4.5131,4.5272,4.5343,4.5219,4.523,4.5645,4.5652,4.5659,4.572,0,0,0,0,0,0,4.4549,4.4589,4.465,4.474,4.4779,4.4982,4.4911,4.4921,4.4981,4.4976,4.5069,4.5081,4.5104,4.5255,4.5283,4.5357,4.5239,4.5639,4.5648,4.5657,4.5712,4.5728,4.5742,0,0,0,0,0,4.4536,4.4662,4.4654,4.4686,4.4857,4.4986,4.5008,4.5031,4.4987,4.5048,4.5093,4.5078,4.5331,4.527,4.5301,4.5379,4.5634,4.5646,4.5656,4.5705,4.5725,4.5742,0,0,0,0,0,0,4.458,4.4674,4.4666,4.4824,4.4897,4.4981,4.506,4.5053,4.514,4.5132,4.5158,4.5179,4.5321,4.5365,4.5294,4.5537,4.5477,4.5494,4.5503,4.5522,4.5537,4.5523,4.5248,0,0,0,0,0,4.4608,4.4705,4.4782,4.4913,4.495,4.4999,4.5056,4.5068,4.5145,4.5176,4.5231,4.5306,4.5402,4.5465,4.5558,4.5719,4.5737,4.5788,4.5803,4.5815,4.5829,4.5913,4.5936,4.5698,4.5698,4.5697,0,0,4.4667,4.473,4.479,4.4924,4.4982,4.508,4.5025,4.5133,4.5206,4.5192,4.5327,4.5371,4.5456,4.5606,4.5675,4.5647,4.5899,4.5829,4.5838,4.5846,4.5927,4.5949,4.5969,4.5705,4.5704,4.5703,0,0,4.4823,4.4882,4.4996,4.5055,4.5143,4.5174,4.5201,4.5287,4.5314,4.5451,4.5441,4.5528,4.5695,4.5754,4.5807,4.5983,4.597,4.6013,4.6092,4.6174,4.6192,4.6209,4.6268,4.629,4.6027,4.6028,4.6028,0,4.4885,4.5033,4.5056,4.5164,4.5222,4.5213,4.5327,4.5383,4.5497,4.5537,4.5504,4.5709,4.5767,4.5929,4.5971,4.6016,4.6045,4.6001,4.6188,4.6205,4.6221,4.6277,4.63,4.6032,4.6031,4.6031,4.603,0,4.5103,4.5206,4.5288,4.5395,4.5463,4.5574,4.5612,4.5678,4.5684,4.5718,4.5854,4.5923,4.6027,4.6067,4.6075,4.623,4.6209,4.6182,4.6121,4.6247,4.6301,4.6323,4.6038,4.6036,4.6035,4.6034,0,0,4.5292,4.5409,4.5439,4.5486,4.5581,4.5661,4.577,4.5871,4.5925,4.6004,4.6094,4.6234,4.6208,4.6268,4.6282,4.6354,4.6484,4.6318,4.632,4.6343,4.6654,4.6671,4.6696,4.6477,4.6482,4.6485,4.6646,0,4.5455,4.5647,4.567,4.5841,4.5934,4.5926,4.6021,4.6089,4.6124,4.6207,4.6246,4.6342,4.6304,4.6339,4.641,4.6453,4.6546,4.6442,4.6559,4.6563,4.6535,4.6725,4.6744,4.6892,4.6667,4.6671,4.6673,0,4.5671,4.5753,4.5932,4.6011,4.6051,4.6136,4.6228,4.6309,4.6385,4.6405,4.647,4.6474,4.6585,4.6522,4.6674,4.6603,4.6652,4.6681,4.6687,4.6696,4.6624,4.6736,4.6941,4.6961,4.6707,4.6705,4.6702,0,4.5785,4.5941,4.6068,4.6109,4.6205,4.6264,4.6307,4.6379,4.6437,4.6518,4.6556,4.665,4.67,4.6772,4.68,4.6752,4.695,4.689,4.6967,4.6966,4.7007,4.7003,4.7219,4.7045,4.7044,4.7044,4.7044,0,4.5962,4.6072,4.612,4.6197,4.6319,4.6344,4.6463,4.6503,4.6567,4.6651,4.6651,4.673,4.6765,4.6849,4.6872,4.6992,4.7016,4.7034,4.7038,4.7032,4.7029,4.7062,4.7051,4.705,4.7049,4.7048,4.7046,0,4.611,4.6147,4.6284,4.6363,4.6385,4.6471,4.6538,4.6612,4.6645,4.6751,4.6778,4.683,4.6929,4.6965,4.7086,4.7101,4.7239,4.7237,4.7212,4.7213,4.7286,4.7277,4.7528,4.7561,4.7368,4.737,4.7372,0,4.6219,4.6302,4.6389,4.6445,4.6489,4.658,4.6639,4.6666,4.6727,4.6818,4.6881,4.6979,4.7058,4.7216,4.7264,4.7355,4.7353,4.7434,4.7367,4.7356,4.7349,4.7342,4.7349,4.7446,4.7448,4.745,4.7451,0,4.6407,4.642,4.6504,4.6594,4.6664,4.6736,4.6807,4.6853,4.689,4.6958,4.7058,4.712,4.7241,4.7337,4.7431,4.7474,4.7468,4.7472,4.7494,4.7487,4.7468,4.7475,4.7243,4.7466,4.7464,4.7463,4.7462,4.7462,4.6536,4.6608,4.6679,4.6772,4.6827,4.6892,4.6965,4.7006,4.709,4.719,4.7202,4.7308,4.7379,4.7504,4.7551,4.7634,4.7612,4.7645,4.7652,4.7659,4.7662,4.7457,4.7652,4.7652,4.7651,4.7651,4.7651,0,4.672,4.6765,4.685,4.6947,4.702,4.7008,4.7084,4.7145,4.7239,4.7306,4.7383,4.7496,4.7589,4.7644,4.7736,4.7792,4.7791,4.7815,4.7809,4.7818,4.7679,4.7649,4.7813,4.7813,4.7813,4.7813,4.7813,4.7813,4.6824,4.6944,4.6966,4.7112,4.7157,4.726,4.7304,4.7363,4.7416,4.7542,4.7619,4.7654,4.7715,4.7812,4.7895,4.7909,4.7941,4.7966,4.7977,4.7846,4.7829,4.7813,4.7784,4.7974,4.7974,4.8109,4.811,4.8111]},{"header":{"parameterUnit":"m.s-1","parameterCategory":1,"la1":30.2991,"la2":30.254,"lo1":-89.0895,"lo2":-89.0444,"dy":0.0017,"dx":0.0017,"nx":28,"ny":28,"refTime":"2024-06-09T09:00:00:Z","depth":0,"parameterNumber":3,"parameterNumberName":"V-component_of_WINDS"},"data":[0,0,0,0,0,0,0,0,0,0,0,0,0,0,0,0,0,0,0,0,0,0,0,0,0,0,0,0,0,0,0,0,0,0,0,0,0,0,0,0,0,0,0,0,0,0,0,0,0,0,0,0,0,0,0,0,0,0,3.0151,3.0152,0,3.024,3.0241,3.0242,3.0212,3.021,3.0209,3.0207,3.0295,3.0299,3.0303,0,0,0,0,0,0,0,0,0,0,0,0,0,2.9952,2.9955,3.0151,3.0152,3.0153,3.0239,3.0241,3.0242,3.0213,3.021,3.0208,3.0206,3.0294,3.0299,3.0304,0,0,0,0,0,0,0,0,0,0,0,0,0,3.0039,2.9957,3.015,3.0149,3.015,3.0239,3.0241,3.0242,3.0213,3.021,3.0207,3.0205,3.0292,3.0298,3.0305,3.0401,0,0,3.0324,3.0326,0,0,0,0,0,0,0,0,3.0034,3.0046,3.0148,3.0149,3.015,3.0212,3.0203,3.0295,3.0214,3.0189,3.0207,3.0203,3.027,3.0278,3.0301,3.0405,3.0408,3.0324,3.0328,3.0331,3.0332,0,0,0,0,0,0,0,3.0028,3.0042,3.0186,3.0149,3.0151,3.0142,3.0152,3.022,3.0244,3.0191,3.0189,3.02,3.027,3.0295,3.0302,3.041,3.0324,3.0329,3.0333,3.0336,3.0594,3.0597,0,0,0,0,0,0,3.0022,3.0038,3.0183,3.0188,3.0084,3.0148,3.0159,3.0195,3.0244,3.0248,3.0202,3.0198,3.0285,3.0295,3.0305,3.042,3.0331,3.0336,3.034,3.0591,3.0595,3.0598,0,0,0,0,0,0,3.0018,3.0035,3.0179,3.0113,3.013,3.0155,3.0196,3.0198,3.0223,3.0252,3.0256,3.0224,3.0284,3.0297,3.0377,3.0422,3.0339,3.0345,3.0588,3.0592,3.0597,3.065,0,0,0,0,0,0,3.0012,3.0034,3.0072,3.0114,3.0134,3.0251,3.0199,3.0202,3.0234,3.023,3.0273,3.0278,3.0282,3.0368,3.0383,3.043,3.035,3.0584,3.059,3.0595,3.0644,3.0656,3.0666,0,0,0,0,0,3.0005,3.0083,3.0074,3.0092,3.0182,3.0253,3.0265,3.0269,3.0238,3.0276,3.0294,3.0276,3.0415,3.0376,3.0393,3.0442,3.0581,3.0588,3.0595,3.0639,3.0654,3.0666,0,0,0,0,0,0,3.0046,3.0089,3.0079,3.0173,3.021,3.0248,3.0296,3.0285,3.0331,3.0324,3.0327,3.0337,3.0419,3.0438,3.0395,3.0536,3.0493,3.0504,3.0521,3.0535,3.0545,3.0539,3.0355,0,0,0,0,0,3.0066,3.0121,3.0155,3.0235,3.0254,3.0272,3.0303,3.0303,3.0341,3.0356,3.0381,3.0417,3.0468,3.0503,3.0552,3.0646,3.0655,3.0688,3.0699,3.0708,3.0717,3.0767,3.0782,3.0622,3.0622,3.0621,0,0,3.0108,3.0138,3.0173,3.0244,3.0272,3.0328,3.0285,3.0347,3.0388,3.0365,3.0443,3.0461,3.0502,3.0589,3.0629,3.0608,3.0763,3.0717,3.0724,3.0728,3.0776,3.0791,3.0804,3.0626,3.0626,3.0625,0,0,3.0212,3.0241,3.031,3.0339,3.0383,3.0394,3.041,3.045,3.0462,3.054,3.0523,3.0571,3.0661,3.069,3.0716,3.0829,3.0814,3.0845,3.0902,3.095,3.0963,3.0974,3.1013,3.1028,3.0854,3.0854,3.0855,0,3.0259,3.0344,3.0347,3.0409,3.044,3.0422,3.0491,3.0519,3.0576,3.0597,3.0573,3.0683,3.071,3.0803,3.083,3.0853,3.087,3.0841,3.0961,3.0972,3.0983,3.102,3.1035,3.0858,3.0858,3.0857,3.0857,0,3.0397,3.0456,3.0506,3.0562,3.0599,3.0664,3.0676,3.0712,3.0708,3.0721,3.0799,3.0829,3.0884,3.0905,3.0903,3.0998,3.0983,3.096,3.0916,3.1001,3.1037,3.1051,3.0863,3.0862,3.0861,3.086,0,0,3.0532,3.0588,3.0606,3.063,3.0676,3.0721,3.0784,3.0838,3.0868,3.0907,3.096,3.1034,3.1013,3.1043,3.1042,3.1085,3.1171,3.1056,3.1057,3.1076,3.1276,3.1293,3.131,3.1161,3.1163,3.1166,3.1272,0,3.064,3.0753,3.0756,3.0859,3.0912,3.0895,3.0949,3.0983,3.0996,3.1042,3.1056,3.1108,3.1076,3.1094,3.1135,3.1152,3.1211,3.1144,3.1208,3.1211,3.1199,3.1328,3.1347,3.1446,3.1286,3.1288,3.129,0,3.0782,3.0825,3.0933,3.097,3.0992,3.1042,3.109,3.1134,3.1171,3.1177,3.121,3.1203,3.1265,3.1219,3.1305,3.1259,3.1285,3.1297,3.1301,3.1307,3.1256,3.1337,3.1478,3.1492,3.1312,3.131,3.1308,0,3.0868,3.0954,3.1029,3.105,3.1095,3.113,3.115,3.1183,3.1214,3.1256,3.1276,3.1324,3.135,3.1386,3.1392,3.1358,3.1477,3.1432,3.1483,3.1483,3.151,3.1508,3.1656,3.1527,3.1527,3.1526,3.1526,0,3.0988,3.1055,3.1068,3.1114,3.1187,3.119,3.1262,3.1279,3.1308,3.1356,3.1343,3.1388,3.1393,3.1439,3.1443,3.1512,3.1524,3.153,3.153,3.1531,3.1531,3.1549,3.1542,3.153,3.1529,3.1529,3.1528,0,3.1097,3.1109,3.119,3.1225,3.1235,3.1287,3.1316,3.136,3.1371,3.1432,3.1446,3.1463,3.1516,3.1525,3.1587,3.159,3.1673,3.1666,3.1661,3.166,3.171,3.1705,3.1875,3.1897,3.1754,3.1755,3.1756,0,3.1173,3.1224,3.1264,3.1296,3.1317,3.1368,3.14,3.1403,3.1436,3.148,3.1518,3.157,3.1611,3.1697,3.1714,3.1761,3.1755,3.1811,3.1762,3.1761,3.1755,3.1752,3.1756,3.1821,3.1822,3.1823,3.1824,0,3.1307,3.1309,3.1356,3.1404,3.1442,3.148,3.1516,3.1542,3.155,3.1587,3.1642,3.1674,3.1737,3.1788,3.1834,3.1853,3.184,3.1839,3.1854,3.1855,3.185,3.1853,3.1686,3.1836,3.1835,3.1834,3.1833,3.1833,3.1401,3.1445,3.1479,3.1531,3.1558,3.1591,3.1633,3.1649,3.1695,3.1747,3.1746,3.1805,3.1837,3.1898,3.192,3.1965,3.1947,3.1968,3.1973,3.1978,3.1983,3.1843,3.1974,3.1973,3.1973,3.1973,3.1973,0,3.1533,3.1554,3.1601,3.1652,3.1692,3.1676,3.1714,3.1748,3.1801,3.1833,3.1874,3.1935,3.1984,3.2004,3.2052,3.2084,3.2079,3.2096,3.2094,3.2098,3.1997,3.198,3.21,3.21,3.21,3.2099,3.2099,3.2099,3.1606,3.1679,3.1685,3.177,3.179,3.1849,3.1872,3.1902,3.1927,3.1996,3.2037,3.205,3.2077,3.2126,3.2169,3.2174,3.2191,3.2212,3.2213,3.2118,3.2106,3.2093,3.2077,3.2216,3.2216,3.2311,3.2312,3.2312]}]]